FW2164 Weather Reports


Display with metric or nautical units.
time (UTC)temp
F
wind
direction
speed
MPH
gust
MPH
rain 1hr
in
rain 24hr
in
rain mn
in
humidity
%
barometer
mb
20200928182430 54 256 6.0 0.0 0.00 0.00 0.00 82 1007.5
20200928181901 53 161 8.0 0.0 0.00 0.00 0.00 84 1007.5
20200928181417 53 333 11.0 0.0 0.00 0.00 0.00 83 1007.5
20200928180343 54 216 13.0 0.0 0.00 0.00 0.00 81 1007.5
20200928175847 54 301 10.0 0.0 0.00 0.00 0.00 79 1007.5
20200928175432 55 61 8.0 0.0 0.00 0.00 0.00 85 1007.5
20200928174839 53 206 6.0 0.0 0.00 0.00 0.00 86 1007.5
20200928174342 53 172 8.0 0.0 0.00 0.00 0.00 83 1007.8
20200928173843 54 241 11.0 0.0 0.00 0.00 0.00 78 1007.5
20200928173341 54 299 10.0 0.0 0.00 0.00 0.00 78 1007.5
20200928172845 55 299 5.0 0.0 0.00 0.00 0.00 80 1007.5
20200928172344 54 296 9.0 0.0 0.00 0.00 0.00 82 1007.8
20200928171841 53 321 7.0 0.0 0.00 0.00 0.00 82 1007.8
20200928171345 53 133 7.0 0.0 0.00 0.00 0.00 80 1007.8
20200928170841 54 312 7.0 0.0 0.00 0.00 0.00 75 1007.8
20200928170342 54 102 6.0 0.0 0.00 0.00 0.00 77 1007.5
20200928165842 54 300 10.0 0.0 0.00 0.00 0.00 74 1007.8
20200928165339 55 116 7.0 0.0 0.00 0.00 0.00 77 1007.8
20200928164836 55 212 10.0 0.0 0.00 0.00 0.00 75 1007.8
20200928164341 55 266 6.0 0.0 0.00 0.01 0.00 73 1007.8
20200928163842 54 199 12.0 0.0 0.00 0.01 0.00 75 1007.8
20200928163342 54 145 9.0 0.0 0.00 0.01 0.00 78 1007.8
20200928162844 54 306 10.0 0.0 0.00 0.01 0.00 74 1007.8
20200928162352 54 68 12.0 0.0 0.00 0.01 0.00 75 1007.8
20200928161838 54 214 9.0 0.0 0.00 0.01 0.00 76 1007.8
20200928161346 54 339 10.0 0.0 0.00 0.01 0.00 74 1007.8
20200928160839 54 321 9.0 0.0 0.00 0.01 0.00 75 1007.8
20200928160349 54 249 11.0 0.0 0.00 0.01 0.00 73 1007.8
20200928155840 54 68 11.0 0.0 0.00 0.01 0.00 75 1007.8
20200928155346 54 142 9.0 0.0 0.00 0.01 0.00 75 1007.8
20200928154843 55 135 8.0 0.0 0.00 0.01 0.00 74 1007.8
20200928154341 55 62 10.0 0.0 0.00 0.01 0.00 73 1007.8
20200928153844 55 49 11.0 0.0 0.00 0.01 0.00 75 1007.8
20200928153349 55 257 9.0 0.0 0.00 0.01 0.00 76 1007.8
20200928152840 55 74 12.0 0.0 0.00 0.01 0.00 75 1007.8
20200928152341 54 235 13.0 0.0 0.00 0.01 0.00 74 1007.8
20200928151841 55 260 10.0 0.0 0.00 0.01 0.00 74 1007.5
20200928151337 55 254 11.0 0.0 0.00 0.01 0.00 75 1007.8
20200928150837 55 230 8.0 0.0 0.00 0.01 0.00 74 1007.8
20200928150341 56 322 13.0 0.0 0.00 0.01 0.00 71 1007.8
20200928145837 57 338 9.0 0.0 0.00 0.01 0.00 74 1007.5
20200928145340 56 244 9.0 0.0 0.00 0.01 0.00 75 1007.5
20200928144850 54 58 11.0 0.0 0.00 0.01 0.00 79 1007.8
20200928144350 54 135 10.0 0.0 0.00 0.01 0.00 80 1007.5
20200928143840 53 225 10.0 0.0 0.00 0.01 0.00 79 1007.5
20200928143335 53 259 11.0 0.0 0.00 0.01 0.00 78 1007.5
20200928142841 53 213 9.0 0.0 0.00 0.01 0.00 79 1007.5
20200928142343 53 29 11.0 0.0 0.00 0.01 0.00 79 1007.5
20200928141841 54 10 10.0 0.0 0.00 0.01 0.00 75 1007.5
20200928141349 54 334 18.0 0.0 0.00 0.01 0.00 77 1007.5
20200928140839 55 308 9.0 0.0 0.00 0.01 0.00 78 1007.1
20200928140336 54 4 10.0 0.0 0.00 0.01 0.00 77 1007.1
20200928135840 54 323 13.0 0.0 0.00 0.01 0.00 78 1007.1
20200928135358 54 342 7.0 0.0 0.00 0.01 0.00 78 1007.1
20200928134838 53 254 9.0 0.0 0.00 0.01 0.00 79 1007.1
20200928134344 53 257 9.0 0.0 0.00 0.01 0.00 81 1007.1
20200928133840 53 278 7.0 0.0 0.00 0.01 0.00 86 1006.8
20200928133344 50 283 9.0 0.0 0.00 0.01 0.00 87 1007.1
20200928132843 50 347 10.0 0.0 0.00 0.01 0.00 88 1007.1
20200928132340 50 33 11.0 0.0 0.00 0.01 0.00 87 1006.8
20200928131841 50 354 9.0 0.0 0.00 0.01 0.00 87 1007.1
20200928131356 50 47 13.0 0.0 0.00 0.01 0.00 88 1007.1
20200928130846 50 275 8.0 0.0 0.00 0.01 0.00 87 1007.1
20200928130416 50 50 7.0 0.0 0.00 0.01 0.00 88 1007.1
20200928125845 50 47 7.0 0.0 0.00 0.01 0.00 88 1007.1
20200928125341 50 346 9.0 0.0 0.00 0.01 0.00 89 1007.1
20200928124849 50 72 6.0 0.0 0.00 0.01 0.00 89 1007.1
20200928124340 50 301 9.0 0.0 0.00 0.01 0.00 89 1007.1
20200928123837 50 283 5.0 0.0 0.00 0.01 0.00 90 1007.1
20200928123341 50 239 4.0 0.0 0.00 0.01 0.00 89 1007.1
20200928122842 50 114 9.0 0.0 0.00 0.01 0.00 89 1006.8
20200928122337 50 342 7.0 0.0 0.00 0.01 0.00 89 1006.8
20200928121840 50 316 8.0 0.0 0.00 0.01 0.00 89 1006.8
20200928121341 50 346 7.0 0.0 0.00 0.01 0.00 88 1006.8
20200928120848 50 99 14.0 0.0 0.00 0.01 0.00 88 1006.8
20200928120347 50 303 10.0 0.0 0.00 0.01 0.00 89 1006.4
20200928115841 50 11 11.0 0.0 0.00 0.01 0.00 89 1006.8
20200928115342 50 151 6.0 0.0 0.00 0.01 0.00 89 1006.4
20200928114843 50 341 8.0 0.0 0.00 0.01 0.00 89 1006.4
20200928114339 50 119 7.0 0.0 0.00 0.01 0.00 89 1006.4
20200928113841 51 268 9.0 0.0 0.00 0.01 0.00 89 1006.4
20200928113343 50 213 7.0 0.0 0.00 0.01 0.00 88 1006.4
20200928112837 50 179 7.0 0.0 0.00 0.01 0.00 88 1006.4
20200928112340 51 289 7.0 0.0 0.00 0.01 0.00 88 1006.4
20200928112019 51 7 8.0 0.0 0.00 0.01 0.00 89 1006.4
20200928111344 51 80 10.0 0.0 0.00 0.01 0.00 89 1006.4
20200928110840 51 186 9.0 0.0 0.00 0.01 0.00 89 1006.1
20200928110342 51 259 7.0 0.0 0.00 0.01 0.00 89 1006.1
20200928105843 51 29 6.0 0.0 0.00 0.01 0.00 89 1006.1
20200928105358 51 319 9.0 0.0 0.00 0.01 0.00 90 1006.1
20200928104843 51 224 8.0 0.0 0.00 0.01 0.00 90 1006.1
20200928104342 51 330 8.0 0.0 0.00 0.01 0.00 91 1006.1
20200928103842 51 8 7.0 0.0 0.00 0.01 0.00 91 1006.1
20200928103342 51 312 6.0 0.0 0.00 0.01 0.00 91 1006.1
20200928102836 51 40 5.0 0.0 0.00 0.01 0.00 92 1006.1
20200928102339 51 266 7.0 0.0 0.00 0.01 0.00 92 1005.8
20200928101835 51 163 8.0 0.0 0.00 0.01 0.00 92 1006.1
20200928101340 51 296 5.0 0.0 0.00 0.01 0.00 93 1005.8
20200928100843 51 310 8.0 0.0 0.00 0.01 0.00 93 1005.8
20200928100344 51 311 8.0 0.0 0.00 0.01 0.00 93 1005.8
20200928095843 51 287 6.0 0.0 0.00 0.01 0.00 94 1005.8
20200928095338 51 283 11.0 0.0 0.00 0.01 0.00 94 1005.8
20200928094842 51 257 8.0 0.0 0.00 0.01 0.00 94 1005.8
20200928094339 51 267 6.0 0.0 0.00 0.01 0.00 94 1005.8
20200928093839 51 232 6.0 0.0 0.00 0.01 0.00 94 1005.8
20200928093341 51 314 3.0 0.0 0.00 0.01 0.00 94 1005.8
20200928092837 51 312 6.0 0.0 0.00 0.01 0.00 94 1005.4
20200928092344 51 297 5.0 0.0 0.00 0.01 0.00 93 1005.4
20200928091844 51 82 4.0 0.0 0.00 0.01 0.00 93 1005.4
20200928091416 51 305 7.0 0.0 0.00 0.01 0.00 93 1005.4
20200928090340 51 248 6.0 0.0 0.00 0.01 0.00 93 1005.4
20200928085838 52 225 7.0 0.0 0.00 0.01 0.00 93 1005.4
20200928085338 52 32 6.0 0.0 0.00 0.01 0.00 93 1005.4
20200928084839 52 242 7.0 0.0 0.00 0.01 0.00 93 1005.4
20200928084337 52 248 6.0 0.0 0.00 0.01 0.00 94 1005.4
20200928083844 52 178 5.0 0.0 0.00 0.01 0.00 94 1005.4
20200928083337 52 74 3.0 0.0 0.00 0.01 0.00 94 1005.4
20200928082843 52 256 5.0 0.0 0.00 0.01 0.00 94 1005.4
20200928082336 52 177 4.0 0.0 0.00 0.01 0.00 94 1005.4
20200928081838 52 321 6.0 0.0 0.00 0.01 0.00 94 1005.4
20200928081343 52 280 5.0 0.0 0.00 0.01 0.00 94 1005.4
20200928080844 52 260 4.0 0.0 0.00 0.01 0.00 94 1005.4
20200928080345 52 236 5.0 0.0 0.00 0.01 0.00 94 1005.4
20200928075837 52 13 5.0 0.0 0.00 0.01 0.00 94 1005.4
20200928075335 52 260 4.0 0.0 0.00 0.01 0.00 94 1005.4
20200928074841 52 288 4.0 0.0 0.00 0.01 0.00 94 1005.4
20200928074340 52 228 4.0 0.0 0.00 0.01 0.00 94 1005.4
20200928073839 52 225 6.0 0.0 0.00 0.01 0.00 94 1005.4
20200928073342 52 280 8.0 0.0 0.00 0.01 0.00 94 1005.4
20200928072838 52 213 7.0 0.0 0.00 0.01 0.00 94 1005.4
20200928072341 52 232 3.0 0.0 0.00 0.01 0.00 94 1005.4
20200928071840 52 307 6.0 0.0 0.00 0.01 0.00 94 1005.8
20200928071342 52 283 6.0 0.0 0.00 0.01 0.00 94 1005.4
20200928070841 52 298 7.0 0.0 0.00 0.01 0.00 94 1005.4
20200928070340 52 337 6.0 0.0 0.00 0.01 0.00 94 1005.4
20200928065841 52 352 6.0 0.0 0.00 0.01 0.00 95 1005.4
20200928065339 52 233 4.0 0.0 0.00 0.01 0.00 95 1005.4
20200928064840 52 221 6.0 0.0 0.00 0.01 0.00 95 1005.4
20200928064339 51 302 8.0 0.0 0.00 0.01 0.00 95 1005.4
20200928064021 51 257 5.0 0.0 0.00 0.01 0.00 95 1005.4
20200928063337 51 205 4.0 0.0 0.00 0.01 0.00 96 1005.4
20200928062839 51 244 7.0 0.0 0.00 0.01 0.00 96 1005.4
20200928062339 51 313 4.0 0.0 0.00 0.01 0.00 96 1005.4
20200928061920 51 295 7.0 0.0 0.00 0.01 0.00 96 1005.4
20200928061343 50 193 7.0 0.0 0.00 0.01 0.00 97 1005.1
20200928060841 50 210 6.0 0.0 0.00 0.01 0.00 97 1005.1
20200928060340 50 223 2.0 0.0 0.00 0.01 0.00 97 1005.4
20200928055840 50 269 6.0 0.0 0.00 0.01 0.00 97 1005.1
20200928055344 50 233 5.0 0.0 0.00 0.01 0.00 97 1005.1
20200928054841 50 239 6.0 0.0 0.00 0.01 0.00 97 1005.1
20200928054342 50 256 7.0 0.0 0.00 0.01 0.00 97 1005.1
20200928053837 50 308 4.0 0.0 0.00 0.01 0.00 97 1005.1
20200928053348 50 246 7.0 0.0 0.00 0.01 0.00 97 1005.1
20200928052839 50 204 5.0 0.0 0.00 0.01 0.00 97 1005.1
20200928052342 50 234 6.0 0.0 0.00 0.01 0.00 97 1005.1
20200928051838 50 47 4.0 0.0 0.00 0.01 0.00 97 1005.1
20200928051344 50 311 5.0 0.0 0.00 0.01 0.00 97 1005.1
20200928050839 50 252 4.0 0.0 0.00 0.01 0.00 97 1005.1
20200928050341 50 81 6.0 0.0 0.00 0.01 0.00 97 1004.7
20200928045849 51 205 4.0 0.0 0.00 0.01 0.01 96 1005.1
20200928045340 50 230 5.0 0.0 0.00 0.01 0.01 96 1005.1
20200928044841 51 35 5.0 0.0 0.00 0.01 0.01 96 1005.1
20200928044343 51 315 6.0 0.0 0.00 0.01 0.01 96 1005.1
20200928043841 51 256 4.0 0.0 0.00 0.01 0.01 96 1005.4
20200928043342 51 283 4.0 0.0 0.00 0.01 0.01 96 1005.1
20200928042844 51 146 5.0 0.0 0.00 0.01 0.01 95 1005.1
20200928042343 51 262 6.0 0.0 0.00 0.01 0.01 95 1005.1
20200928041845 51 297 6.0 0.0 0.00 0.01 0.01 95 1005.4
20200928041337 51 249 6.0 0.0 0.00 0.01 0.01 95 1005.1
20200928040839 51 19 5.0 0.0 0.00 0.01 0.01 95 1005.4
20200928040344 52 289 4.0 0.0 0.00 0.01 0.01 95 1005.4
20200928035839 52 203 7.0 0.0 0.00 0.01 0.01 95 1005.4
20200928035344 52 161 9.0 0.0 0.00 0.01 0.01 95 1005.1
20200928034842 52 253 6.0 0.0 0.00 0.01 0.01 95 1005.4
20200928034341 52 173 5.0 0.0 0.00 0.01 0.01 95 1005.1
20200928033840 52 284 6.0 0.0 0.00 0.01 0.01 95 1005.1
20200928033342 52 176 7.0 0.0 0.00 0.01 0.01 95 1005.1
20200928032836 52 169 6.0 0.0 0.00 0.01 0.01 95 1005.1
20200928032419 52 123 6.0 0.0 0.00 0.01 0.01 96 1005.1
20200928031847 53 290 5.0 0.0 0.00 0.01 0.01 96 1005.1
20200928031336 53 265 5.0 0.0 0.00 0.01 0.01 96 1004.7
20200928030858 52 149 4.0 0.0 0.00 0.01 0.01 96 1004.7
20200928030500 53 204 8.0 0.0 0.00 0.01 0.01 96 1004.7
20200928025931 52 294 6.0 0.0 0.00 0.01 0.01 96 1004.7
20200928025353 53 261 7.0 0.0 0.00 0.01 0.01 96 1004.7
20200928024900 53 171 10.0 0.0 0.00 0.01 0.01 96 1004.7
20200928024402 53 300 7.0 0.0 0.00 0.01 0.01 96 1004.7
20200928023856 53 358 9.0 0.0 0.00 0.01 0.01 96 1004.7
20200928023404 53 320 6.0 0.0 0.00 0.01 0.01 96 1004.7
20200928022900 53 260 7.0 0.0 0.00 0.01 0.01 95 1004.7
20200928022356 53 300 7.0 0.0 0.00 0.01 0.01 95 1004.7
20200928021906 53 236 4.0 0.0 0.00 0.01 0.01 95 1004.7
20200928021436 53 344 4.0 0.0 0.00 0.01 0.01 95 1004.7
20200928020910 54 305 6.0 0.0 0.00 0.01 0.01 95 1004.7
20200928020358 54 309 7.0 0.0 0.00 0.01 0.01 95 1004.7
20200928015903 54 300 10.0 0.0 0.00 0.01 0.01 95 1004.7
20200928015339 54 321 7.0 0.0 0.00 0.01 0.01 95 1004.7
20200928014844 54 169 4.0 0.0 0.00 0.01 0.01 95 1004.7
20200928014358 54 259 6.0 0.0 0.00 0.01 0.01 95 1004.7
20200928013901 54 290 4.0 0.0 0.00 0.01 0.01 95 1004.7
20200928013400 54 289 10.0 0.0 0.00 0.01 0.01 95 1004.7
20200928012845 54 104 6.0 0.0 0.00 0.01 0.01 95 1004.7
20200928012434 54 345 9.0 0.0 0.00 0.01 0.01 95 1004.4
20200928011850 54 252 5.0 0.0 0.00 0.01 0.01 94 1004.4
20200928011400 54 185 8.0 0.0 0.00 0.01 0.01 94 1004.4
20200928010854 54 243 8.0 0.0 0.00 0.01 0.01 94 1004.4
20200928010429 54 264 8.0 0.0 0.00 0.01 0.01 93 1004.4
20200928005343 54 261 12.0 0.0 0.00 0.01 0.01 93 1004.1
20200928004849 55 234 10.0 0.0 0.00 0.01 0.01 92 1004.1
20200928004339 55 331 11.0 0.0 0.00 0.01 0.01 92 1004.1
20200928003847 55 345 8.0 0.0 0.00 0.01 0.01 91 1004.1
20200928003337 55 303 10.0 0.0 0.00 0.01 0.01 91 1004.1
20200928002837 55 262 11.0 0.0 0.00 0.01 0.01 90 1004.1
20200928002342 55 239 9.0 0.0 0.00 0.01 0.01 90 1004.1
20200928001842 55 300 8.0 0.0 0.00 0.01 0.01 89 1004.1
20200928001340 55 265 12.0 0.0 0.00 0.01 0.01 89 1004.1
20200928000849 55 239 8.0 0.0 0.00 0.01 0.01 89 1004.1
20200928000348 55 253 10.0 0.0 0.00 0.01 0.01 88 1003.7
20200927235839 55 281 8.0 0.0 0.00 0.01 0.01 88 1003.7
20200927235348 56 212 10.0 0.0 0.00 0.01 0.01 87 1003.7
20200927234843 56 163 11.0 0.0 0.00 0.01 0.01 86 1003.7
20200927234350 56 286 11.0 0.0 0.00 0.01 0.01 85 1003.7
20200927233846 56 317 11.0 0.0 0.00 0.01 0.01 84 1003.7
20200927233355 56 282 12.0 0.0 0.00 0.01 0.01 84 1003.7
20200927232847 57 255 12.0 0.0 0.00 0.01 0.01 83 1003.7
20200927232355 57 190 8.0 0.0 0.00 0.01 0.01 82 1003.7
20200927231849 57 244 11.0 0.0 0.00 0.01 0.01 80 1003.4
20200927231344 57 308 10.0 0.0 0.00 0.01 0.01 79 1003.4
20200927230935 57 325 20.0 0.0 0.00 0.01 0.01 78 1003.4
20200927230347 58 249 20.0 0.0 0.00 0.01 0.01 78 1003.4
20200927225846 58 291 10.0 0.0 0.00 0.01 0.01 78 1003.4
20200927225345 58 278 8.0 0.0 0.00 0.01 0.01 78 1003.0
20200927224851 58 289 10.0 0.0 0.00 0.01 0.01 78 1003.0
20200927224338 57 266 14.0 0.0 0.00 0.01 0.01 79 1003.4
20200927223859 57 261 11.0 0.0 0.00 0.01 0.01 80 1003.4
20200927223418 57 232 8.0 0.0 0.00 0.01 0.01 81 1003.4
20200927222840 57 291 11.0 0.0 0.00 0.01 0.01 80 1003.4
20200927222431 58 203 15.0 0.0 0.00 0.01 0.01 79 1003.4
20200927221902 59 233 18.0 0.0 0.00 0.01 0.01 76 1003.0
20200927221344 59 252 11.0 0.0 0.00 0.01 0.01 74 1003.0
20200927220857 60 277 6.0 0.0 0.00 0.01 0.01 74 1003.0
20200927220349 60 286 16.0 0.0 0.00 0.01 0.01 72 1003.0
20200927215855 60 272 13.0 0.0 0.00 0.01 0.01 71 1003.0
20200927215406 60 307 14.0 0.0 0.00 0.01 0.01 71 1003.0
20200927214926 60 295 14.0 0.0 0.00 0.01 0.01 69 1002.7
20200927214345 61 223 15.0 0.0 0.00 0.01 0.01 68 1002.7
20200927213850 61 318 17.0 0.0 0.00 0.01 0.01 69 1002.7
20200927213435 61 234 13.0 0.0 0.00 0.01 0.01 67 1002.7
20200927212848 61 256 16.0 0.0 0.00 0.01 0.01 66 1002.7
20200927212338 61 246 15.0 0.0 0.00 0.01 0.01 65 1002.4
20200927211851 61 283 17.0 0.0 0.00 0.01 0.01 66 1002.4
20200927211345 62 229 14.0 0.0 0.00 0.01 0.01 66 1002.4
20200927210901 62 307 11.0 0.0 0.00 0.01 0.01 64 1002.7
20200927210437 62 271 10.0 0.0 0.00 0.01 0.01 64 1002.7
20200927205839 62 69 13.0 0.0 0.00 0.01 0.01 63 1002.7
20200927205403 62 58 20.0 0.0 0.00 0.01 0.01 62 1002.4
20200927204843 62 303 15.0 0.0 0.00 0.01 0.01 61 1002.4
20200927204341 63 285 11.0 0.0 0.00 0.01 0.01 59 1002.0
20200927203925 63 261 12.0 0.0 0.00 0.01 0.01 59 1002.4
20200927203344 64 295 14.0 0.0 0.00 0.01 0.01 59 1002.0
20200927202839 64 259 16.0 0.0 0.00 0.01 0.01 61 1002.0
20200927202343 64 277 19.0 0.0 0.00 0.01 0.01 56 1001.7
20200927201841 64 134 14.0 0.0 0.00 0.01 0.01 62 1002.0
20200927201342 63 317 11.0 0.0 0.00 0.01 0.01 60 1002.0
20200927200837 64 298 12.0 0.0 0.00 0.01 0.01 59 1001.7
20200927200346 65 245 17.0 0.0 0.00 0.01 0.01 57 1002.0
20200927195845 65 191 15.0 0.0 0.00 0.01 0.01 57 1002.0
20200927195340 65 300 21.0 0.0 0.00 0.01 0.01 58 1002.0
20200927194840 63 255 15.0 0.0 0.00 0.01 0.01 60 1001.7
20200927194343 63 306 11.0 0.0 0.00 0.01 0.01 59 1001.7
20200927193840 63 351 15.0 0.0 0.00 0.01 0.01 59 1002.0
20200927193345 63 268 20.0 0.0 0.00 0.01 0.01 60 1001.7
20200927192840 63 233 14.0 0.0 0.00 0.01 0.01 62 1001.7
20200927192339 64 284 13.0 0.0 0.00 0.01 0.01 59 1001.7
20200927191845 64 281 11.0 0.0 0.00 0.01 0.01 57 1001.7
20200927191337 65 281 14.0 0.0 0.00 0.01 0.01 59 1001.7
20200927190846 66 325 15.0 0.0 0.00 0.01 0.01 56 1001.7
20200927190343 65 237 16.0 0.0 0.00 0.01 0.01 57 1001.7
20200927185856 66 248 17.0 0.0 0.00 0.01 0.01 54 1001.4
20200927185340 68 183 12.0 0.0 0.00 0.01 0.01 57 1001.7
20200927184842 66 264 16.0 0.0 0.00 0.01 0.01 56 1001.7
20200927184341 68 210 15.0 0.0 0.00 0.01 0.01 53 1001.7
20200927183841 66 312 16.0 0.0 0.00 0.01 0.01 56 1001.7
20200927183343 66 223 14.0 0.0 0.00 0.01 0.01 57 1001.7
20200927182925 63 241 16.0 0.0 0.00 0.01 0.01 58 1002.0